Location: Chillicothe
(39.7950°N, 93.5520°W)
Time: 04:36:38
(UTC-06:00)

BEESAT - Pass Details

Date: 24 November 2019
Orbit: 700 x 709 km, 98.6° (Epoch: 09 December)

Event Time Altitude Azimuth Distance (km) Brightness Sun altitude
Rises 06:19:06 0° 217° (SW) 3,075 ? -9.6°
Reaches altitude 10° 06:23:07 10° 252° (WSW) 2,163 ? -8.9°
Maximum altitude 06:24:33 11° 270° (W) 2,081 ? -8.6°
Enters shadow 06:25:47 10° 285° (WNW) 2,145 ? -8.4°
